[[{"header":{"parameterUnit":"m.s-1","parameterCategory":2,"la1":30.2991,"la2":30.254,"lo1":-89.0895,"lo2":-89.0444,"dy":0.0017,"dx":0.0017,"nx":28,"ny":28,"refTime":"2025-05-28T21:00:00:Z","depth":"0","parameterNumber":2,"parameterNumberName":"U-component_of_CURRENTS"},"data":[0,0,0,0,0,0,0,0,0,0,0,0,0,0,0,0,0,0,0,0,0,0,0,0,0,0,0,0,0,0,0,0,0,0,0,0,0,0,0,0,0,0,0,0,0,0,0,0,0,0,0,0,0,0,0,0,0,0,0.373,0.373,0,0.3719,0.3719,0.3718,0.3695,0.3695,0.3694,0.3694,0.3667,0.3667,0.3666,0,0,0,0,0,0,0,0,0,0,0,0,0,0.3747,0.3747,0.373,0.373,0.373,0.3719,0.3719,0.3718,0.3695,0.3694,0.3694,0.3694,0.3667,0.3667,0.3666,0,0,0,0,0,0,0,0,0,0,0,0,0,0.3737,0.3746,0.373,0.3718,0.3717,0.3719,0.3719,0.3718,0.3695,0.3694,0.3694,0.3693,0.3667,0.3667,0.3666,0.3673,0,0,0.3664,0.3664,0,0,0,0,0,0,0,0,0.3737,0.3736,0.372,0.3719,0.3718,0.3709,0.3715,0.3703,0.3695,0.3702,0.3694,0.3693,0.3681,0.3679,0.3676,0.3672,0.367,0.3664,0.3664,0.3664,0.3664,0,0,0,0,0,0,0,0.3738,0.3736,0.3724,0.372,0.3719,0.3719,0.3716,0.3712,0.3693,0.3701,0.37,0.3701,0.368,0.3677,0.3676,0.367,0.3664,0.3664,0.3663,0.3663,0.3735,0.3737,0,0,0,0,0,0,0.3742,0.3737,0.3725,0.3724,0.3728,0.3719,0.3716,0.3711,0.3693,0.3691,0.3701,0.37,0.3678,0.3676,0.3675,0.375,0.3664,0.3663,0.3663,0.3732,0.3735,0.3737,0,0,0,0,0,0,0.3742,0.3741,0.3725,0.3732,0.373,0.3719,0.3714,0.3711,0.3715,0.3694,0.3691,0.3709,0.3678,0.3675,0.3682,0.3746,0.3663,0.3662,0.373,0.3733,0.3736,0.3857,0,0,0,0,0,0,0.3743,0.3741,0.3743,0.3732,0.373,0.3744,0.3714,0.3711,0.3717,0.3715,0.3699,0.3696,0.3677,0.3683,0.3681,0.3744,0.3662,0.3727,0.3731,0.3735,0.3851,0.3865,0.3877,0,0,0,0,0,0.3743,0.3749,0.3743,0.3741,0.3731,0.3745,0.3745,0.3734,0.3718,0.3733,0.3716,0.3696,0.371,0.3684,0.3681,0.3745,0.3725,0.373,0.3735,0.3845,0.3862,0.3876,0,0,0,0,0,0,0.3757,0.3747,0.374,0.3741,0.3751,0.3742,0.3753,0.3743,0.3741,0.3738,0.371,0.3706,0.3746,0.3721,0.3693,0.3779,0.3721,0.3726,0.3805,0.3821,0.3834,0.3847,0.3661,0,0,0,0,0,0.3762,0.376,0.376,0.3763,0.3772,0.3764,0.3768,0.3765,0.3759,0.3758,0.3748,0.3746,0.3765,0.377,0.3776,0.3808,0.3831,0.3852,0.3866,0.3877,0.3887,0.4,0.4026,0.3754,0.3754,0.3754,0,0,0.3766,0.3761,0.376,0.3766,0.377,0.3795,0.3766,0.3783,0.381,0.3756,0.3789,0.3788,0.3783,0.3831,0.3847,0.3817,0.3964,0.3883,0.3893,0.3897,0.4009,0.4035,0.4059,0.3757,0.3757,0.3756,0,0,0.378,0.3776,0.3785,0.3801,0.3816,0.3822,0.3832,0.3838,0.3852,0.3874,0.3863,0.39,0.3898,0.3932,0.3942,0.4028,0.4031,0.4031,0.4107,0.4218,0.4242,0.4263,0.4323,0.4348,0.4036,0.4036,0.4037,0,0.3789,0.3796,0.3794,0.3817,0.3836,0.3839,0.387,0.3892,0.3901,0.3931,0.3899,0.3964,0.3957,0.4049,0.4077,0.4063,0.4103,0.4049,0.4238,0.426,0.4279,0.4335,0.4362,0.4043,0.4042,0.4041,0.4041,0,0.381,0.3827,0.3841,0.3869,0.3896,0.3923,0.3958,0.3994,0.4004,0.4027,0.411,0.4113,0.4154,0.4173,0.4142,0.4288,0.4264,0.4246,0.4203,0.4315,0.4365,0.4391,0.4052,0.405,0.4048,0.4046,0,0,0.3793,0.3845,0.3848,0.3879,0.3925,0.3951,0.4021,0.4089,0.4152,0.4181,0.4272,0.4314,0.4324,0.4337,0.4338,0.4425,0.4591,0.4393,0.4396,0.4459,0.4815,0.4656,0.4667,0.4616,0.4622,0.4626,0.4793,0,0.381,0.3858,0.3884,0.395,0.3984,0.403,0.41,0.4168,0.4222,0.4317,0.437,0.4446,0.4389,0.4425,0.4509,0.4579,0.4665,0.4545,0.469,0.4694,0.4546,0.4695,0.4414,0.4527,0.4818,0.4822,0.4825,0,0.3811,0.385,0.3906,0.4001,0.4024,0.4068,0.4189,0.4258,0.4395,0.4443,0.4535,0.4571,0.4703,0.4638,0.4824,0.4752,0.4791,0.4833,0.4841,0.4666,0.4583,0.4463,0.4562,0.443,0.4864,0.4861,0.4858,0,0.3784,0.3865,0.3911,0.3938,0.4046,0.4094,0.4164,0.4289,0.4384,0.4536,0.4625,0.4751,0.4848,0.4934,0.4979,0.4933,0.5177,0.5125,0.5018,0.5006,0.4779,0.4736,0.4769,0.5272,0.5272,0.5272,0.5271,0,0.3782,0.3824,0.3901,0.3929,0.4026,0.4092,0.4218,0.4309,0.4466,0.4607,0.4689,0.4815,0.4936,0.5061,0.5072,0.5121,0.5255,0.5064,0.5061,0.4807,0.4768,0.4646,0.4601,0.5278,0.5276,0.5275,0.5274,0,0.3762,0.3794,0.3876,0.3982,0.4013,0.4093,0.4255,0.4366,0.4493,0.4687,0.4748,0.4934,0.5072,0.5149,0.5309,0.5241,0.5133,0.5271,0.4932,0.4883,0.4594,0.4564,0.4466,0.4348,0.5189,0.5186,0.5184,0,0.3761,0.3787,0.3911,0.3979,0.4031,0.4144,0.4238,0.4369,0.4492,0.4743,0.4847,0.5031,0.5118,0.5257,0.5171,0.5166,0.5061,0.4917,0.4764,0.4569,0.4537,0.4397,0.4296,0.4521,0.4514,0.4508,0.4503,0,0.3797,0.3836,0.3929,0.4045,0.4138,0.4232,0.4361,0.4437,0.4615,0.4749,0.4914,0.4991,0.5066,0.4914,0.4885,0.4841,0.4636,0.4787,0.4706,0.412,0.3855,0.3738,0.4403,0.4449,0.4454,0.4458,0.4461,0.4463,0.3853,0.3929,0.4038,0.414,0.4238,0.4286,0.4294,0.4419,0.4532,0.46,0.4809,0.4756,0.4684,0.4558,0.45,0.4175,0.4254,0.4007,0.4024,0.3928,0.3687,0.4199,0.4156,0.416,0.4163,0.4165,0.4168,0,0.3907,0.3985,0.4117,0.4201,0.4249,0.4284,0.4351,0.4282,0.4292,0.4362,0.4399,0.4214,0.4028,0.3919,0.3626,0.3436,0.3299,0.3353,0.3112,0.3083,0.3642,0.3481,0.3141,0.3142,0.3142,0.3142,0.3142,0.3142,0.3953,0.405,0.4094,0.4152,0.4185,0.4096,0.406,0.3967,0.3927,0.3708,0.3521,0.349,0.3479,0.3314,0.3022,0.2931,0.2747,0.2565,0.2682,0.3078,0.314,0.3199,0.3038,0.2611,0.261,0.193,0.1925,0.1921]},{"header":{"parameterUnit":"m.s-1","parameterCategory":2,"la1":30.2991,"la2":30.254,"lo1":-89.0895,"lo2":-89.0444,"dy":0.0017,"dx":0.0017,"nx":28,"ny":28,"refTime":"2025-05-28T21:00:00:Z","depth":"0","parameterNumber":3,"parameterNumberName":"V-component_of_CURRENTS"},"data":[0,0,0,0,0,0,0,0,0,0,0,0,0,0,0,0,0,0,0,0,0,0,0,0,0,0,0,0,0,0,0,0,0,0,0,0,0,0,0,0,0,0,0,0,0,0,0,0,0,0,0,0,0,0,0,0,0,0,0.0273,0.0273,0,0.0247,0.0246,0.0246,0.0215,0.0215,0.0214,0.0214,0.0166,0.0165,0.0164,0,0,0,0,0,0,0,0,0,0,0,0,0,0.0255,0.0255,0.0273,0.0273,0.0273,0.0247,0.0246,0.0246,0.0215,0.0215,0.0214,0.0214,0.0166,0.0165,0.0164,0,0,0,0,0,0,0,0,0,0,0,0,0,0.0247,0.0255,0.0273,0.0256,0.0254,0.0247,0.0246,0.0246,0.0215,0.0215,0.0214,0.0214,0.0166,0.0165,0.0163,0.0163,0,0,0.0159,0.0158,0,0,0,0,0,0,0,0,0.0248,0.0248,0.0259,0.0257,0.0255,0.0235,0.0222,0.0218,0.0215,0.0228,0.0214,0.0213,0.0188,0.0185,0.0179,0.0161,0.0159,0.0159,0.0158,0.0157,0.0157,0,0,0,0,0,0,0,0.0248,0.0249,0.0261,0.0258,0.0256,0.0235,0.0233,0.0221,0.0209,0.0227,0.0225,0.0225,0.0187,0.018,0.0178,0.0158,0.0159,0.0157,0.0157,0.0156,0.0143,0.0143,0,0,0,0,0,0,0.0258,0.0249,0.0262,0.026,0.0252,0.0236,0.0234,0.0241,0.021,0.0205,0.0225,0.0224,0.0183,0.0179,0.0176,0.0197,0.0157,0.0156,0.0155,0.0142,0.0143,0.0143,0,0,0,0,0,0,0.0258,0.026,0.0263,0.0255,0.0254,0.0237,0.0244,0.024,0.0235,0.0209,0.0204,0.0224,0.0183,0.0178,0.0173,0.0194,0.0155,0.0154,0.0142,0.0142,0.0143,0.0224,0,0,0,0,0,0,0.0258,0.026,0.0265,0.0256,0.0255,0.0269,0.0245,0.024,0.0237,0.0234,0.0207,0.0202,0.0182,0.0176,0.0172,0.0191,0.0153,0.0141,0.0142,0.0143,0.0221,0.0228,0.0234,0,0,0,0,0,0.0257,0.0275,0.0265,0.0267,0.0264,0.027,0.0267,0.0251,0.0237,0.0243,0.0224,0.0203,0.0179,0.0175,0.017,0.019,0.014,0.0142,0.0143,0.0218,0.0226,0.0233,0,0,0,0,0,0,0.0268,0.0274,0.0263,0.028,0.0277,0.0265,0.027,0.0256,0.0245,0.024,0.0212,0.0206,0.021,0.0186,0.0182,0.0187,0.0155,0.0156,0.0214,0.0221,0.0228,0.0259,0.0151,0,0,0,0,0,0.0273,0.0288,0.0284,0.0296,0.0299,0.0283,0.0281,0.027,0.0261,0.0255,0.0239,0.0219,0.0211,0.0206,0.0191,0.0196,0.0198,0.0203,0.0209,0.0215,0.0236,0.0261,0.0272,0.0147,0.0147,0.0147,0,0,0.028,0.0285,0.0292,0.0299,0.0295,0.0314,0.0281,0.0285,0.0303,0.0252,0.0269,0.0242,0.0216,0.0223,0.0222,0.0207,0.025,0.0216,0.0222,0.024,0.0263,0.0276,0.0287,0.0148,0.0148,0.0148,0,0,0.0313,0.0307,0.0335,0.034,0.0341,0.0333,0.0338,0.033,0.0329,0.0334,0.0307,0.03,0.0277,0.0276,0.0268,0.0302,0.0283,0.0284,0.0344,0.0368,0.0379,0.0389,0.0408,0.0419,0.0287,0.0288,0.0288,0,0.0319,0.0357,0.0342,0.0372,0.0387,0.0349,0.0385,0.0379,0.037,0.0386,0.0349,0.0346,0.0311,0.0346,0.0344,0.032,0.0325,0.032,0.038,0.0389,0.0398,0.0414,0.0426,0.0292,0.0291,0.0291,0.029,0,0.038,0.0406,0.0424,0.0452,0.0462,0.0484,0.048,0.0486,0.0469,0.0468,0.049,0.0448,0.0454,0.043,0.039,0.0437,0.0417,0.0387,0.0367,0.0416,0.0429,0.044,0.0298,0.0296,0.0295,0.0294,0,0,0.0408,0.0459,0.0465,0.0498,0.0509,0.0529,0.0558,0.0588,0.0629,0.0598,0.0663,0.0615,0.0594,0.0584,0.0541,0.0542,0.0586,0.0487,0.0487,0.0519,0.064,0.0572,0.0576,0.0566,0.0568,0.057,0.0625,0,0.0461,0.054,0.0549,0.0618,0.0659,0.0648,0.0689,0.0706,0.071,0.0759,0.0725,0.076,0.0655,0.0667,0.065,0.0617,0.0616,0.0574,0.0576,0.0577,0.0522,0.0587,0.0564,0.0606,0.0634,0.0636,0.0637,0,0.0523,0.057,0.0652,0.0722,0.0741,0.0773,0.084,0.0875,0.0919,0.0931,0.0948,0.0928,0.094,0.0839,0.0814,0.0792,0.0722,0.0676,0.0677,0.0597,0.0528,0.056,0.0623,0.049,0.0653,0.0651,0.065,0,0.0564,0.0644,0.0714,0.0737,0.0804,0.0843,0.0879,0.0928,0.0995,0.1057,0.1125,0.1108,0.1151,0.1058,0.094,0.0891,0.091,0.0837,0.0713,0.0708,0.0681,0.0669,0.0629,0.0821,0.0821,0.0821,0.0821,0,0.0626,0.0682,0.074,0.0781,0.0878,0.0903,0.1013,0.1046,0.1139,0.1267,0.1226,0.1335,0.1209,0.1195,0.1034,0.0921,0.0989,0.075,0.0728,0.0705,0.0695,0.0568,0.048,0.0823,0.0823,0.0822,0.0822,0,0.0668,0.0701,0.0792,0.0872,0.0902,0.0975,0.1101,0.1193,0.1267,0.1442,0.1483,0.1544,0.1538,0.1383,0.1274,0.108,0.0859,0.088,0.0855,0.0826,0.0543,0.0459,0.0388,0.0331,0.0762,0.0761,0.076,0,0.0701,0.075,0.0855,0.0922,0.0963,0.107,0.1158,0.1244,0.1367,0.1585,0.1696,0.1756,0.1827,0.1629,0.1311,0.1048,0.088,0.0819,0.0699,0.0548,0.044,0.0373,0.0326,0.0704,0.0703,0.0702,0.0701,0,0.0772,0.0803,0.0882,0.1012,0.1109,0.1234,0.1374,0.1486,0.1641,0.1818,0.2054,0.2134,0.1959,0.1705,0.1312,0.1102,0.0706,0.0784,0.0655,0.0418,0.0322,0.0249,0.064,0.0691,0.0692,0.0692,0.0693,0.0693,0.0824,0.0896,0.0998,0.1123,0.1239,0.1399,0.1529,0.1714,0.1944,0.2224,0.2287,0.2429,0.2024,0.1501,0.1212,0.0637,0.0644,0.0438,0.0362,0.0319,0.022,0.0574,0.0567,0.0567,0.0568,0.0568,0.0568,0,0.0895,0.0983,0.1108,0.1264,0.1403,0.1449,0.1681,0.1846,0.2144,0.2364,0.2566,0.2402,0.1924,0.1403,0.0616,0.0262,0.0154,0.009,0.0007,-0.0012,0.034,0.029,0.0191,0.0191,0.0191,0.0191,0.0191,0.0192,0.094,0.1068,0.1134,0.1371,0.1489,0.1695,0.1834,0.2097,0.2295,0.2533,0.257,0.2571,0.2138,0.0882,0.009,-0.0071,-0.0278,-0.0348,-0.0421,-0.0184,-0.0157,-0.0131,-0.0197,-0.0397,-0.0398,-0.0733,-0.0736,-0.0739]}],[{"header":{"parameterUnit":"m.s-1","parameterCategory":2,"la1":30.2991,"la2":30.254,"lo1":-89.0895,"lo2":-89.0444,"dy":0.0017,"dx":0.0017,"nx":28,"ny":28,"refTime":"2025-05-28T21:00:00:Z","depth":"2","parameterNumber":2,"parameterNumberName":"U-component_of_CURRENTS"},"data":[0,0,0,0,0,0,0,0,0,0,0,0,0,0,0,0,0,0,0,0,0,0,0,0,0,0,0,0,0,0,0,0,0,0,0,0,0,0,0,0,0,0,0,0,0,0,0,0,0,0,0,0,0,0,0,0,0,0,0.2845,0.2846,0,0.2842,0.2842,0.2841,0.2836,0.2836,0.2837,0.2837,0.2859,0.2859,0.2859,0,0,0,0,0,0,0,0,0,0,0,0,0,0.2798,0.2799,0.2845,0.2846,0.2846,0.2842,0.2842,0.2841,0.2836,0.2836,0.2837,0.2837,0.2859,0.2859,0.2859,0,0,0,0,0,0,0,0,0,0,0,0,0,0.2804,0.2799,0.2845,0.2847,0.2847,0.2842,0.2842,0.2841,0.2836,0.2837,0.2837,0.2838,0.2858,0.2859,0.2859,0.285,0,0,0.286,0.286,0,0,0,0,0,0,0,0,0.2804,0.2805,0.2846,0.2847,0.2847,0.2845,0.2833,0.2847,0.2836,0.2835,0.2837,0.2838,0.2859,0.2859,0.285,0.2851,0.2852,0.286,0.286,0.2861,0.2861,0,0,0,0,0,0,0,0.2804,0.2805,0.2839,0.2847,0.2848,0.2832,0.2833,0.2835,0.284,0.2835,0.2836,0.2844,0.2859,0.285,0.2851,0.2852,0.286,0.286,0.2861,0.2861,0.2941,0.2943,0,0,0,0,0,0,0.2816,0.2805,0.2839,0.2839,0.2832,0.2832,0.2834,0.2841,0.284,0.2842,0.2843,0.2843,0.2849,0.285,0.2851,0.2933,0.2861,0.2861,0.2861,0.2939,0.2941,0.2943,0,0,0,0,0,0,0.2815,0.2819,0.2839,0.2826,0.2828,0.2834,0.2841,0.2841,0.2852,0.2847,0.2848,0.2858,0.2849,0.2851,0.2886,0.2931,0.2861,0.2861,0.2937,0.294,0.2942,0.3038,0,0,0,0,0,0,0.2814,0.2819,0.2829,0.2827,0.283,0.2858,0.2841,0.284,0.2857,0.2858,0.286,0.2861,0.285,0.2885,0.2886,0.293,0.2862,0.2934,0.2938,0.2941,0.3032,0.3043,0.3053,0,0,0,0,0,0.2812,0.2828,0.283,0.2834,0.2844,0.2859,0.2859,0.286,0.2858,0.287,0.288,0.2862,0.2909,0.2887,0.2887,0.2932,0.2932,0.2937,0.2941,0.3027,0.3041,0.3053,0,0,0,0,0,0,0.2814,0.2829,0.2831,0.2851,0.2865,0.2861,0.2874,0.2873,0.2886,0.2893,0.2882,0.2885,0.2926,0.2918,0.2894,0.2966,0.2919,0.2924,0.2985,0.2998,0.3008,0.3028,0.2862,0,0,0,0,0,0.282,0.2835,0.2848,0.2866,0.2877,0.2878,0.2885,0.289,0.29,0.2906,0.2912,0.2924,0.294,0.2961,0.2962,0.3006,0.3023,0.3036,0.3047,0.3056,0.3074,0.316,0.3181,0.2957,0.2957,0.2957,0,0,0.2821,0.2838,0.2842,0.2868,0.2876,0.2899,0.2883,0.2908,0.2933,0.2908,0.295,0.2953,0.2955,0.3001,0.3021,0.3007,0.3125,0.3062,0.3069,0.3082,0.3167,0.3189,0.3208,0.296,0.296,0.2959,0,0,0.2833,0.2853,0.2867,0.2891,0.2921,0.2927,0.2941,0.2957,0.2973,0.3007,0.3003,0.3048,0.3056,0.3089,0.3099,0.3172,0.3167,0.3167,0.3253,0.3337,0.3357,0.3374,0.3412,0.3432,0.3187,0.3187,0.3187,0,0.2835,0.2859,0.2875,0.2906,0.293,0.2945,0.2971,0.2993,0.3021,0.3046,0.3035,0.3096,0.3103,0.318,0.3212,0.3199,0.3228,0.3204,0.3353,0.3371,0.3387,0.3422,0.3443,0.3192,0.3192,0.3191,0.3191,0,0.2859,0.2887,0.2905,0.2947,0.2975,0.3006,0.3043,0.3075,0.3094,0.3118,0.3191,0.3215,0.3262,0.3273,0.3266,0.3389,0.3364,0.3346,0.3324,0.3416,0.3445,0.3466,0.32,0.3198,0.3196,0.3195,0,0,0.2837,0.2903,0.2912,0.2936,0.3003,0.3022,0.3084,0.3137,0.319,0.3232,0.3314,0.3361,0.3393,0.341,0.3426,0.3508,0.3646,0.349,0.3492,0.3532,0.3812,0.3662,0.3669,0.3662,0.3667,0.367,0.3781,0,0.2849,0.2901,0.2939,0.2993,0.302,0.307,0.312,0.3179,0.3242,0.3332,0.3393,0.3472,0.3442,0.3494,0.3574,0.3634,0.3706,0.3615,0.3713,0.3715,0.3576,0.369,0.3389,0.3452,0.3801,0.3804,0.3806,0,0.2854,0.2893,0.2944,0.3009,0.3027,0.3069,0.3165,0.3225,0.3355,0.3408,0.3518,0.3572,0.3713,0.3673,0.3831,0.3778,0.3809,0.3839,0.3843,0.3687,0.3604,0.3419,0.3475,0.384,0.3837,0.3835,0.3832,0,0.282,0.289,0.2929,0.2958,0.304,0.3078,0.3134,0.3249,0.333,0.35,0.359,0.3721,0.3826,0.3901,0.3965,0.3923,0.4123,0.4066,0.3948,0.3936,0.3689,0.3647,0.4177,0.4176,0.4176,0.4176,0.4176,0,0.2819,0.2845,0.2917,0.2949,0.3,0.307,0.3174,0.3243,0.3404,0.3517,0.365,0.3765,0.3898,0.4015,0.4035,0.4061,0.4182,0.3988,0.3974,0.3708,0.3668,0.4005,0.3984,0.418,0.4179,0.4178,0.4178,0,0.2776,0.2826,0.287,0.2958,0.299,0.3036,0.3193,0.3268,0.3425,0.3596,0.3664,0.3856,0.3977,0.4068,0.4201,0.4143,0.4184,0.4152,0.3807,0.3748,0.3914,0.3897,0.4033,0.4029,0.4026,0.4023,0.4021,0,0.2753,0.2777,0.2868,0.291,0.2958,0.3053,0.3113,0.3262,0.3357,0.3625,0.3689,0.3884,0.3953,0.4085,0.4039,0.4038,0.413,0.3742,0.3594,0.3937,0.391,0.3897,0.3885,0.3306,0.3298,0.3292,0.3286,0,0.272,0.2757,0.28,0.2877,0.2942,0.3017,0.3124,0.3195,0.3377,0.349,0.3638,0.3728,0.3848,0.3705,0.3712,0.3666,0.3714,0.3603,0.4114,0.337,0.3256,0.3227,0.3239,0.3228,0.3234,0.3238,0.3241,0.3244,0.2705,0.2713,0.2778,0.2825,0.291,0.2961,0.2954,0.3059,0.3141,0.3241,0.3433,0.3436,0.348,0.3305,0.3206,0.3129,0.3366,0.3209,0.3228,0.3255,0.3132,0.3017,0.292,0.2924,0.2927,0.293,0.2933,0,0.2684,0.2703,0.2733,0.2786,0.2784,0.2878,0.2929,0.2868,0.2859,0.2984,0.3035,0.2804,0.2711,0.2762,0.2549,0.2524,0.2498,0.2418,0.2366,0.2427,0.2481,0.2317,0.1889,0.1885,0.1882,0.1879,0,0,0.2696,0.2682,0.2651,0.2616,0.2662,0.2606,0.2581,0.2517,0.253,0.2456,0.2425,0.2606,0.2707,0.2274,0.2204,0.2016,0.2207,0.1933,0.278,0.2784,0.2833,0.2954,0.2772,0,0,0,0,0]},{"header":{"parameterUnit":"m.s-1","parameterCategory":2,"la1":30.2991,"la2":30.254,"lo1":-89.0895,"lo2":-89.0444,"dy":0.0017,"dx":0.0017,"nx":28,"ny":28,"refTime":"2025-05-28T21:00:00:Z","depth":"2","parameterNumber":3,"parameterNumberName":"V-component_of_CURRENTS"},"data":[0,0,0,0,0,0,0,0,0,0,0,0,0,0,0,0,0,0,0,0,0,0,0,0,0,0,0,0,0,0,0,0,0,0,0,0,0,0,0,0,0,0,0,0,0,0,0,0,0,0,0,0,0,0,0,0,0,0,0.0154,0.0154,0,0.013,0.013,0.0129,0.0106,0.0106,0.0106,0.0106,0.0065,0.0064,0.0063,0,0,0,0,0,0,0,0,0,0,0,0,0,0.0139,0.0139,0.0154,0.0154,0.0154,0.013,0.013,0.0129,0.0106,0.0106,0.0106,0.0106,0.0065,0.0064,0.0063,0,0,0,0,0,0,0,0,0,0,0,0,0,0.0132,0.0139,0.0154,0.014,0.0139,0.013,0.013,0.0129,0.0106,0.0106,0.0106,0.0106,0.0066,0.0064,0.0063,0.0061,0,0,0.0059,0.0058,0,0,0,0,0,0,0,0,0.0133,0.0133,0.0143,0.0141,0.014,0.0122,0.0109,0.0106,0.0107,0.0118,0.0106,0.0105,0.0083,0.008,0.0075,0.0059,0.0057,0.0059,0.0058,0.0057,0.0057,0,0,0,0,0,0,0,0.0133,0.0134,0.0144,0.0142,0.0141,0.0121,0.012,0.0108,0.0102,0.0117,0.0115,0.0114,0.0082,0.0077,0.0074,0.0057,0.0059,0.0057,0.0057,0.0056,0.0038,0.0039,0,0,0,0,0,0,0.0141,0.0134,0.0145,0.0143,0.0136,0.0122,0.012,0.0127,0.0102,0.0098,0.0114,0.0113,0.0079,0.0076,0.0073,0.0085,0.0057,0.0056,0.0055,0.0038,0.0038,0.0039,0,0,0,0,0,0,0.0141,0.0142,0.0146,0.0138,0.0137,0.0123,0.013,0.0127,0.0122,0.0101,0.0096,0.0113,0.0079,0.0075,0.0069,0.0083,0.0055,0.0054,0.0038,0.0038,0.0038,0.0099,0,0,0,0,0,0,0.0141,0.0143,0.0148,0.0139,0.0138,0.0149,0.013,0.0127,0.0122,0.012,0.0098,0.0094,0.0078,0.0071,0.0067,0.008,0.0053,0.0037,0.0038,0.0038,0.0097,0.0102,0.0106,0,0,0,0,0,0.014,0.0155,0.0149,0.015,0.0147,0.015,0.0148,0.0135,0.0123,0.0128,0.0111,0.0095,0.0072,0.007,0.0066,0.0079,0.0037,0.0038,0.0038,0.0095,0.0101,0.0106,0,0,0,0,0,0,0.0149,0.0154,0.0147,0.0162,0.0158,0.0147,0.0149,0.0138,0.0128,0.0124,0.0101,0.0096,0.0094,0.0077,0.0075,0.0074,0.0051,0.0051,0.0095,0.0101,0.0105,0.0128,0.0052,0,0,0,0,0,0.0154,0.0168,0.0164,0.0175,0.0176,0.0161,0.0159,0.0151,0.0141,0.0136,0.0121,0.0104,0.0094,0.009,0.0076,0.0078,0.0062,0.0082,0.0086,0.0091,0.0105,0.0101,0.0107,0.0041,0.0041,0.0041,0,0,0.0158,0.0164,0.017,0.0177,0.0172,0.0187,0.016,0.0162,0.0174,0.0133,0.0143,0.0118,0.0096,0.0099,0.0097,0.0088,0.0096,0.0092,0.0095,0.0108,0.0102,0.0109,0.0115,0.0042,0.0041,0.0041,0,0,0.0182,0.0181,0.0203,0.0208,0.0209,0.0203,0.0206,0.0197,0.0194,0.0196,0.0171,0.0158,0.0141,0.0134,0.0126,0.0147,0.0119,0.0136,0.0183,0.0179,0.0185,0.019,0.0162,0.0165,0.0142,0.0142,0.0143,0,0.0186,0.0218,0.0208,0.0232,0.0245,0.0215,0.0243,0.0236,0.0226,0.0233,0.0207,0.019,0.0162,0.0178,0.0179,0.016,0.0145,0.0166,0.0187,0.0191,0.0196,0.0166,0.0168,0.0145,0.0145,0.0145,0.0145,0,0.0232,0.0255,0.0269,0.0295,0.0303,0.0321,0.0316,0.0319,0.0303,0.0297,0.0302,0.0264,0.0258,0.024,0.0214,0.0232,0.0206,0.0192,0.0177,0.0206,0.0173,0.0173,0.015,0.0149,0.0148,0.0147,0,0,0.025,0.0294,0.0299,0.0328,0.0342,0.0357,0.0378,0.0396,0.0425,0.0392,0.043,0.0385,0.0359,0.0349,0.0313,0.0302,0.0297,0.0262,0.026,0.0243,0.0274,0.0232,0.0228,0.029,0.0291,0.0291,0.0234,0,0.029,0.0357,0.0364,0.0423,0.0459,0.045,0.0482,0.049,0.0488,0.0515,0.047,0.0488,0.0404,0.0411,0.038,0.0334,0.0305,0.0313,0.0242,0.024,0.0207,0.023,0.0254,0.0203,0.0234,0.0234,0.0234,0,0.0336,0.038,0.045,0.0511,0.0525,0.0552,0.0605,0.0632,0.0651,0.0653,0.0645,0.0615,0.0595,0.0523,0.0439,0.0451,0.0363,0.031,0.0306,0.0252,0.02,0.0181,0.0203,0.0235,0.0235,0.0235,0.0235,0,0.0373,0.0439,0.0501,0.0522,0.0581,0.0611,0.0643,0.0675,0.0732,0.0754,0.0802,0.0744,0.075,0.0641,0.0504,0.0481,0.0411,0.0367,0.0238,0.0233,0.0232,0.0226,0.03,0.03,0.03,0.03,0.03,0,0.0423,0.0472,0.0525,0.0563,0.0649,0.0668,0.0765,0.0783,0.0853,0.0954,0.0884,0.0947,0.0784,0.0719,0.0561,0.0408,0.0448,0.0255,0.0225,0.025,0.0246,0.0259,0.0256,0.0298,0.0298,0.0299,0.0299,0,0.0459,0.0489,0.0571,0.0644,0.0672,0.0738,0.0859,0.0942,0.0986,0.112,0.1144,0.1115,0.1026,0.084,0.0673,0.0503,0.0351,0.0276,0.0301,0.0275,0.0153,0.0152,0.0132,0.013,0.0129,0.0128,0.0127,0,0.0485,0.053,0.0633,0.0701,0.0739,0.0844,0.0934,0.1003,0.1113,0.1237,0.132,0.1269,0.1245,0.096,0.067,0.0388,0.0346,0.0208,0.0159,0.0167,0.014,0.0142,0.0144,0.0171,0.0171,0.017,0.017,0,0.0544,0.0577,0.0653,0.0793,0.0893,0.1024,0.1158,0.126,0.1378,0.1475,0.1591,0.1576,0.1312,0.103,0.0631,0.0437,0.0253,0.0187,0.0222,0.0207,0.0199,0.0174,0.0175,0.0166,0.0166,0.0166,0.0167,0.0167,0.0591,0.066,0.0767,0.09,0.1024,0.1197,0.1323,0.1472,0.1638,0.1777,0.1756,0.1718,0.1405,0.0882,0.0561,0.0217,0.0226,0.0087,0.0091,0.0095,0.0107,0.0096,0.0045,0.0044,0.0044,0.0044,0.0044,0,0.0661,0.0746,0.0874,0.1043,0.1196,0.125,0.1472,0.1596,0.1788,0.1859,0.1903,0.1589,0.1276,0.0922,0.0417,0.0106,0.009,0.0001,0.0054,0.006,0.0066,0.0077,0.0006,0.0005,0.0005,0.0004,0,0,0.0705,0.0834,0.09,0.1154,0.1283,0.1488,0.1618,0.178,0.1874,0.1911,0.1863,0.1767,0.1367,0.0986,0.0579,0.0298,0.0245,0.0234,0.0296,0.0414,0.0422,0.0146,0.0175,0,0,0,0,0]}],[{"header":{"parameterUnit":"m.s-1","parameterCategory":2,"la1":30.2991,"la2":30.254,"lo1":-89.0895,"lo2":-89.0444,"dy":0.0017,"dx":0.0017,"nx":28,"ny":28,"refTime":"2025-05-28T21:00:00:Z","depth":"4","parameterNumber":2,"parameterNumberName":"U-component_of_CURRENTS"},"data":[0,0,0,0,0,0,0,0,0,0,0,0,0,0,0,0,0,0,0,0,0,0,0,0,0,0,0,0,0,0,0,0,0,0,0,0,0,0,0,0,0,0,0,0,0,0,0,0,0,0,0,0,0,0,0,0,0,0,0.1633,0.1634,0,0.1695,0.1695,0.1696,0.1752,0.1753,0.1754,0.1754,0.1825,0.1826,0.1827,0,0,0,0,0,0,0,0,0,0,0,0,0,0.1578,0.1579,0.1633,0.1634,0.1635,0.1695,0.1696,0.1696,0.1752,0.1753,0.1754,0.1755,0.1825,0.1826,0.1828,0,0,0,0,0,0,0,0,0,0,0,0,0,0.1615,0.1579,0.1633,0.1671,0.1675,0.1695,0.1696,0.1696,0.1752,0.1753,0.1754,0.1755,0.1824,0.1826,0.1828,0.1813,0,0,0.1833,0.1833,0,0,0,0,0,0,0,0,0.1613,0.1617,0.1665,0.1669,0.1673,0.1719,0.1702,0.1736,0.1751,0.1721,0.1755,0.1756,0.1791,0.1795,0.1801,0.1816,0.1819,0.1833,0.1834,0.1835,0.1835,0,0,0,0,0,0,0,0.161,0.1615,0.1656,0.1666,0.1671,0.1691,0.1697,0.1709,0.1747,0.1724,0.1728,0.1738,0.1793,0.18,0.1803,0.182,0.1833,0.1834,0.1835,0.1836,0.1957,0.1959,0,0,0,0,0,0,0.1604,0.1612,0.1654,0.1658,0.1648,0.1691,0.1698,0.1701,0.1746,0.1755,0.1736,0.174,0.1796,0.1801,0.1806,0.1896,0.1835,0.1836,0.1837,0.1954,0.1957,0.1959,0,0,0,0,0,0,0.1603,0.1607,0.1651,0.1638,0.1646,0.169,0.1694,0.1702,0.1746,0.1757,0.1765,0.1777,0.1797,0.1804,0.1859,0.1896,0.1837,0.1838,0.1952,0.1955,0.1958,0.2009,0,0,0,0,0,0,0.1601,0.1606,0.1625,0.1638,0.1646,0.1686,0.1693,0.1702,0.1748,0.1755,0.1793,0.1799,0.1799,0.1856,0.186,0.1897,0.184,0.1949,0.1953,0.1957,0.2005,0.2014,0.2022,0,0,0,0,0,0.1598,0.161,0.1625,0.1632,0.1665,0.1688,0.1695,0.1729,0.175,0.1773,0.1809,0.18,0.1886,0.1859,0.1863,0.1901,0.1947,0.1952,0.1957,0.2001,0.2012,0.2022,0,0,0,0,0,0,0.1596,0.1617,0.1635,0.1653,0.1683,0.1699,0.1727,0.1748,0.1793,0.1813,0.1822,0.1831,0.1893,0.1894,0.1864,0.1951,0.1917,0.1923,0.1949,0.196,0.1968,0.1953,0.1841,0,0,0,0,0,0.1603,0.1623,0.1644,0.1667,0.1681,0.1712,0.1734,0.1759,0.1791,0.1814,0.1843,0.1878,0.1909,0.1933,0.1957,0.2,0.2011,0.2031,0.2039,0.2046,0.204,0.2111,0.2125,0.1976,0.1976,0.1976,0,0,0.1613,0.1627,0.1642,0.167,0.1695,0.1719,0.1729,0.1772,0.1804,0.1812,0.1879,0.1908,0.1928,0.1981,0.2009,0.1991,0.2096,0.2053,0.2058,0.2047,0.2117,0.2132,0.2144,0.1979,0.1979,0.1978,0,0,0.1627,0.1651,0.1671,0.1692,0.1735,0.1752,0.1772,0.1813,0.1848,0.1905,0.1925,0.1978,0.2026,0.2048,0.2062,0.2131,0.2138,0.2153,0.2183,0.2254,0.2266,0.2277,0.2309,0.2322,0.2158,0.2159,0.2159,0,0.1645,0.1657,0.1683,0.1702,0.1724,0.1769,0.1793,0.183,0.1891,0.1924,0.1938,0.2034,0.2051,0.211,0.2137,0.2148,0.2183,0.2139,0.2264,0.2275,0.2285,0.2315,0.2329,0.2162,0.2161,0.2161,0.2161,0,0.1655,0.1681,0.1694,0.1731,0.1762,0.1791,0.1836,0.1889,0.194,0.1976,0.2063,0.2098,0.2158,0.2175,0.2175,0.2262,0.2262,0.2264,0.2232,0.2303,0.233,0.2344,0.2166,0.2165,0.2164,0.2163,0,0,0.1648,0.1693,0.1702,0.1719,0.1778,0.1797,0.1865,0.1925,0.198,0.2051,0.2124,0.2179,0.2221,0.224,0.2265,0.2315,0.2414,0.2328,0.233,0.2348,0.2562,0.2393,0.2391,0.2457,0.2459,0.2462,0.2551,0,0.1652,0.1681,0.1709,0.175,0.1766,0.1825,0.1875,0.1946,0.2023,0.211,0.2169,0.2251,0.2242,0.2296,0.2347,0.2404,0.2455,0.2388,0.2499,0.2501,0.2334,0.2402,0.2471,0.2561,0.2564,0.2566,0.2568,0,0.1641,0.1664,0.1699,0.1748,0.1763,0.1805,0.19,0.1956,0.2082,0.2152,0.2252,0.2313,0.2406,0.2397,0.2517,0.2487,0.253,0.2557,0.2562,0.239,0.2357,0.2478,0.2592,0.259,0.2588,0.2587,0.2585,0,0.1594,0.1649,0.1676,0.1693,0.1763,0.1807,0.1863,0.1978,0.2043,0.2207,0.2288,0.2397,0.2484,0.2555,0.2618,0.2596,0.274,0.2718,0.2596,0.2584,0.2686,0.2673,0.2805,0.2805,0.2805,0.2805,0.2805,0,0.1552,0.1576,0.1664,0.1671,0.1722,0.179,0.1874,0.1955,0.2094,0.2178,0.2318,0.2405,0.2538,0.2631,0.2663,0.2665,0.2787,0.26,0.26,0.2705,0.2694,0.2695,0.2681,0.2808,0.2807,0.2807,0.2806,0,0.1474,0.1536,0.1561,0.165,0.1696,0.1732,0.1871,0.1923,0.2081,0.2208,0.2271,0.2452,0.2572,0.2665,0.2788,0.2708,0.2736,0.2712,0.2813,0.2818,0.2517,0.2505,0.2564,0.2559,0.2554,0.2551,0.2548,0,0.1427,0.1436,0.1533,0.1558,0.1603,0.1692,0.1748,0.1907,0.1977,0.2211,0.2254,0.2441,0.2544,0.2574,0.2681,0.2723,0.2696,0.2669,0.2575,0.25,0.2496,0.249,0.2485,0.2541,0.254,0.2538,0.2537,0,0.1326,0.1374,0.1391,0.1454,0.1516,0.1572,0.1679,0.1726,0.1911,0.2086,0.2197,0.2273,0.2402,0.248,0.2538,0.2562,0.2656,0.2623,0.2631,0.2542,0.2473,0.2471,0.2471,0.2522,0.2524,0.2526,0.2527,0,0.1252,0.1238,0.1281,0.1325,0.1393,0.1422,0.1496,0.1591,0.1692,0.1962,0.2001,0.2207,0.2385,0.24,0.2456,0.2462,0.2414,0.2304,0.2327,0.2345,0.223,0.2108,0.2048,0,0,0,0,0,0.1182,0.116,0.116,0.1185,0.1237,0.1295,0.1431,0.1514,0.1731,0.1756,0.1875,0.1994,0.209,0.2197,0.2161,0.2339,0.2405,0.2281,0.2285,0.2438,0.2456,0.2339,0,0,0,0,0,0,0.113,0.1129,0.1114,0.107,0.1069,0.1118,0.1202,0.1335,0.1372,0.1605,0.1682,0.1852,0.1988,0.21,0.2121,0.2149,0.21,0.2414,0.2408,0.2428,0.2444,0.2458,0.2345,0,0,0,0,0]},{"header":{"parameterUnit":"m.s-1","parameterCategory":2,"la1":30.2991,"la2":30.254,"lo1":-89.0895,"lo2":-89.0444,"dy":0.0017,"dx":0.0017,"nx":28,"ny":28,"refTime":"2025-05-28T21:00:00:Z","depth":"4","parameterNumber":3,"parameterNumberName":"V-component_of_CURRENTS"},"data":[0,0,0,0,0,0,0,0,0,0,0,0,0,0,0,0,0,0,0,0,0,0,0,0,0,0,0,0,0,0,0,0,0,0,0,0,0,0,0,0,0,0,0,0,0,0,0,0,0,0,0,0,0,0,0,0,0,0,0.0149,0.0149,0,0.0135,0.0135,0.0135,0.0123,0.0123,0.0123,0.0123,0.0099,0.0099,0.0098,0,0,0,0,0,0,0,0,0,0,0,0,0,0.0134,0.0134,0.0149,0.0149,0.0149,0.0135,0.0135,0.0135,0.0123,0.0123,0.0123,0.0123,0.0099,0.0099,0.0098,0,0,0,0,0,0,0,0,0,0,0,0,0,0.0132,0.0135,0.0149,0.0142,0.0141,0.0135,0.0135,0.0135,0.0123,0.0123,0.0123,0.0123,0.01,0.0099,0.0098,0.0096,0,0,0.0096,0.0095,0,0,0,0,0,0,0,0,0.0132,0.0133,0.0143,0.0142,0.0141,0.0131,0.0121,0.0121,0.0123,0.013,0.0123,0.0123,0.0109,0.0108,0.0105,0.0095,0.0094,0.0096,0.0095,0.0095,0.0094,0,0,0,0,0,0,0,0.0132,0.0133,0.0143,0.0143,0.0142,0.0128,0.0128,0.0121,0.012,0.0129,0.0128,0.0127,0.0109,0.0106,0.0104,0.0093,0.0096,0.0095,0.0094,0.0094,0.0083,0.0083,0,0,0,0,0,0,0.0137,0.0133,0.0144,0.0143,0.0137,0.0129,0.0128,0.0134,0.012,0.0118,0.0127,0.0127,0.0107,0.0105,0.0103,0.0114,0.0095,0.0094,0.0093,0.0083,0.0083,0.0083,0,0,0,0,0,0,0.0137,0.0138,0.0144,0.0137,0.0137,0.0129,0.0136,0.0134,0.0133,0.0119,0.0117,0.0129,0.0107,0.0105,0.0103,0.0113,0.0094,0.0093,0.0083,0.0083,0.0083,0.0127,0,0,0,0,0,0,0.0136,0.0138,0.0144,0.0138,0.0138,0.0148,0.0136,0.0134,0.0133,0.0132,0.0119,0.0117,0.0107,0.0104,0.0102,0.0111,0.0092,0.0082,0.0083,0.0083,0.0125,0.0129,0.0132,0,0,0,0,0,0.0136,0.0148,0.0145,0.0146,0.0147,0.0148,0.0147,0.014,0.0133,0.0138,0.0129,0.0117,0.0105,0.0104,0.0102,0.0111,0.0082,0.0083,0.0083,0.0124,0.0128,0.0132,0,0,0,0,0,0,0.0142,0.0148,0.0144,0.0156,0.0155,0.0147,0.015,0.0143,0.0139,0.0137,0.0122,0.0119,0.012,0.0108,0.0107,0.0107,0.0091,0.0091,0.0123,0.0126,0.013,0.0144,0.0091,0,0,0,0,0,0.0147,0.0159,0.0157,0.0166,0.0166,0.0158,0.0157,0.0152,0.0147,0.0145,0.0137,0.0126,0.0119,0.0118,0.0108,0.0111,0.0086,0.0114,0.0117,0.012,0.0129,0.0097,0.0098,0.0085,0.0085,0.0085,0,0,0.015,0.0155,0.0161,0.0168,0.0165,0.0176,0.0157,0.016,0.0171,0.0143,0.0155,0.0137,0.0121,0.0124,0.0123,0.0117,0.0108,0.0121,0.0123,0.0131,0.0097,0.0099,0.01,0.0085,0.0085,0.0085,0,0,0.0166,0.0169,0.0184,0.019,0.0191,0.0188,0.0191,0.0186,0.0187,0.0192,0.0174,0.0163,0.0156,0.0148,0.0142,0.0156,0.0124,0.0151,0.0184,0.0152,0.0153,0.0154,0.0114,0.0111,0.0156,0.0156,0.0156,0,0.0169,0.0193,0.0187,0.0205,0.0217,0.0197,0.0219,0.0216,0.0212,0.0217,0.0202,0.0185,0.0168,0.0173,0.0178,0.0165,0.0138,0.0172,0.0157,0.0157,0.0157,0.0116,0.0112,0.0158,0.0158,0.0158,0.0158,0,0.0198,0.0219,0.0229,0.0249,0.0258,0.0273,0.0272,0.0277,0.027,0.0265,0.0263,0.0236,0.0228,0.0217,0.0204,0.0198,0.0176,0.0162,0.0149,0.0161,0.0117,0.0112,0.0161,0.0161,0.016,0.0159,0,0,0.0206,0.0243,0.0248,0.0275,0.0288,0.0303,0.0318,0.0332,0.0352,0.0327,0.0345,0.0318,0.0295,0.0287,0.0261,0.0235,0.0203,0.0204,0.0201,0.0169,0.0125,0.0112,0.0104,0.0185,0.0184,0.0184,0.0092,0,0.0233,0.0285,0.0293,0.0344,0.0374,0.0372,0.0396,0.0403,0.04,0.0408,0.0366,0.037,0.0325,0.0324,0.0287,0.0227,0.0193,0.0229,0.0116,0.0113,0.0102,0.0099,0.0183,0.0088,0.0087,0.0086,0.0085,0,0.026,0.0299,0.0356,0.0413,0.0426,0.045,0.0492,0.0513,0.0509,0.0507,0.0486,0.045,0.041,0.037,0.0263,0.0287,0.0214,0.0158,0.0153,0.0125,0.009,0.0075,0.0075,0.0076,0.0077,0.0078,0.0078,0,0.0282,0.0342,0.0396,0.0416,0.047,0.0498,0.0526,0.0542,0.0579,0.0571,0.0583,0.0518,0.0495,0.0392,0.0265,0.0267,0.0136,0.0122,0.0036,0.0033,0.0054,0.0054,0.0046,0.0046,0.0046,0.0046,0.0047,0,0.0314,0.0359,0.0415,0.0449,0.0526,0.0543,0.0619,0.0631,0.0661,0.0707,0.064,0.0642,0.05,0.0404,0.0282,0.0138,0.0142,0.0042,0.0012,0.0073,0.0076,0.0049,0.0051,0.0043,0.0044,0.0044,0.0045,0,0.0334,0.0365,0.0439,0.0512,0.054,0.0598,0.0693,0.0744,0.0758,0.0811,0.0812,0.0735,0.0614,0.0454,0.0283,0.0171,0.003,-0.0024,0.0046,0.002,-0.0056,-0.0051,-0.0119,-0.012,-0.0121,-0.0122,-0.0123,0,0.0349,0.0386,0.049,0.0547,0.0587,0.0678,0.0743,0.0792,0.085,0.0866,0.0888,0.0789,0.0716,0.0456,0.0284,0.0042,0.0008,-0.008,-0.006,-0.0049,-0.0072,-0.0065,-0.0059,-0.0124,-0.0125,-0.0125,-0.0125,0,0.0384,0.0419,0.0488,0.0601,0.0683,0.0787,0.0879,0.0922,0.0974,0.0986,0.0952,0.0816,0.0677,0.0468,0.0274,0.0101,-0.0031,-0.0091,-0.009,-0.0072,-0.0056,-0.0076,-0.0069,-0.0128,-0.0128,-0.0128,-0.0127,0,0.0414,0.0464,0.0548,0.0656,0.076,0.0856,0.0909,0.0968,0.1016,0.1023,0.1006,0.0849,0.0762,0.0498,0.032,0.0147,0.0109,0.0041,0.0035,0.0036,0.0106,0.015,0.0118,0,0,0,0,0,0.0442,0.0498,0.0595,0.0712,0.0818,0.0877,0.0981,0.1023,0.1061,0.1047,0.1032,0.0902,0.0643,0.0528,0.0356,0.0298,0.0072,0.0087,-0.0011,-0.0148,-0.0144,-0.009,0,0,0,0,0,0,0.0459,0.0545,0.0593,0.0736,0.0818,0.0935,0.0998,0.103,0.1026,0.1031,0.0901,0.0844,0.0597,0.0744,0.0349,0.0297,0.0206,-0.0026,-0.0031,-0.015,-0.0146,-0.0143,-0.0086,0,0,0,0,0]}]]